sat.trackr.live / text

‹ back to catalog

STARLINK-3521

NORAD 51742 · 2022-016AE

PAYLOAD ACTIVE UNKNOWN

§ Identity

Operator
Country
US
Launch date
2022-02-21
Launch site
AFETR
Launch vehicle
Mass (kg)
RCS (m²)

Purposes: comms

External: N2YO · Heavens-Above · Gunter

§ Orbital elements

Epoch: 2026-09-19T22:45:34.746912Z

Period
93.85 min
Inclination
53.1592°
Eccentricity
0.0001225
Mean motion
15.34384611 rev/d
Perigee alt
461.9 km
Apogee alt
463.6 km
Semi-major
6,840.9 km
B*
2.0670e-5
RAAN
152.0881°
Arg perigee
91.8880°
Mean anomaly
268.2263°
Rev number
25,309

§ Raw data

STARLINK-35211 51742U 22016AE  26262.94831883  .00000322  00000+0  20670-4 0  99972 51742  53.1592 152.0881 0001225  91.8880 268.2263 15.34384611253099

JSON: /api/v1/satellites/51742 · /tle

For live sub-satellite position, see the globe view (requires WebGL).

§ Visibility from observer

Set your observer location to see the next 7 days of passes ≥ 10°. The values pass through the URL so the page stays shareable.

No JS? Fill the form by hand. The geolocation button needs JavaScript.